Flag for Switzerland Weather past 2 weeks in Illnau-Effretikon, Zurich, Switzerland

Now
34 °F

Chilly.


Feels Like: 34 °F
Forecast: 23 / 46 °F
Wind: 2 mph from Southeast

Location: Zurich Town / Ville.

Current Time: Feb 28, 2015 at 10:11:38 PM

Latest Report: Feb 28, 2015 at 9:00 PM


Visibility: N/A

Pressure: 30.14 "Hg

Humidity: 87%

Dew point: 30 °F

Location of Illnau-EffretikonLocation

Historic Weather in Illnau-Effretikon — Graph

°F

Illnau-Effretikon temperature yesterday

Maximum temperature yesterday: 36 °F (at 3:00 PM)
Minimum temperature yesterday: 31 °F (at 8:00 AM)
Average temperature yesterday: 35 °F

Past Weeks' High & Low Weather Summary

 TemperatureHumidityPressure
High50 °F (Feb 20, 4:00 PM)100% (Feb 15, 8:00 AM)30.75 "Hg (Feb 15, 8:00 AM)
Low26 °F (Feb 15, 8:00 AM)35% (Feb 20, 4:00 PM)29.58 "Hg (Feb 21, 12:00 PM)
Average34 °F82%30.08 "Hg
* Reported Feb 13 8:00 PM — Feb 28 8:00 PM, Illnau-Effretikon, Weather by CustomWeather, © 2015

Note: Actual official high and low records may vary slightly from our data, if they occured in-between our weather recording intervals... More about our weather records

Advertising

Illnau-Effretikon weather history for previous 24 hours

 ConditionsComfort  
Time TempWeatherWind HumidityBarometerVisibility
8:00 PM
Sat, Feb 28
35 °FChilly.1 mph85%30.13 "HgN/A
7:00 PM35 °FPassing clouds.2 mph83%30.13 "HgN/A
6:00 PM39 °FChilly.1 mph71%30.11 "HgN/A
5:00 PM39 °FChilly.1 mph72%30.11 "HgN/A
4:00 PM39 °FChilly.1 mph70%30.13 "HgN/A
3:00 PM39 °FChilly.3 mph70%30.13 "HgN/A
2:00 PM40 °FChilly.2 mph66%30.14 "HgN/A
1:00 PM38 °FOvercast.2 mph75%30.17 "HgN/A
12:00 PM37 °FChilly.6 mph80%30.18 "HgN/A
11:00 AM37 °FChilly.3 mph88%30.19 "HgN/A
10:00 AM35 °FChilly.3 mph91%30.21 "HgN/A
9:00 AM34 °FChilly.2 mph94%30.22 "HgN/A
8:00 AM34 °FChilly.2 mph95%30.22 "HgN/A
7:00 AM33 °FChilly.2 mph98%30.21 "HgN/A
6:00 AM33 °FChilly.2 mph97%30.20 "HgN/A
5:00 AM33 °FChilly.2 mph97%30.19 "HgN/A
3:00 AM33 °FChilly.1 mph97%30.20 "HgN/A
2:00 AM34 °FChilly.2 mph97%30.21 "HgN/A
1:00 AM34 °FChilly.3 mph95%30.22 "HgN/A
12:00 AM34 °FChilly.3 mph97%30.22 "HgN/A
11:00 PM
Fri, Feb 27
34 °FChilly.3 mph95%30.21 "HgN/A
Weather by CustomWeather, © 2015

See weather overviewHow to use our weather pages